Flag for Austria Weather past 2 weeks in Linz, Upper Austria, Austria

Now
55 °F

Fog.


Feels Like: 55 °F
Forecast: 50 / 62 °F
Wind: 3 mph from Northwest

Location: Linz / Hoersching-Flughafen

Current Time: Oct 2, 2014 at 9:40:40 AM

Latest Report: Oct 2, 2014 at 8:50 AM


Visibility: 0 mi

Pressure: 30.39 "Hg

Humidity: 94%

Dew point: 54 °F

Location of LinzLocation

Historic Weather in Linz — Graph

°F

Linz temperature yesterday

Maximum temperature yesterday: 63 °F (at 12:50 PM)
Minimum temperature yesterday: 59 °F (at 2:50 AM)
Average temperature yesterday: 60 °F

Past Weeks' High & Low Weather Summary

 TemperatureHumidityPressure
High75 °F (Sep 17, 2:50 PM)100% (Sep 20, 3:50 AM)30.39 "Hg (Sep 20, 3:50 AM)
Low37 °F (Sep 24, 7:20 AM)41% (Sep 17, 3:20 PM)29.89 "Hg (Sep 21, 6:20 PM)
Average58 °F84%30.13 "Hg
* Reported Sep 17 8:20 AM — Oct 2 8:20 AM, Linz, Weather by CustomWeather, © 2014

Note: Actual official high and low records may vary slightly from our data, if they occured in-between our weather recording intervals... More about our weather records

Advertising

Linz weather history for previous 24 hours

 ConditionsComfort  
Time TempWeatherWind HumidityBarometerVisibility
8:20 AM
Oct 2
55 °FFog.3 mph100%30.39 "Hg0 mi
7:50 AM54 °FFog.2 mph100%30.39 "Hg0 mi
7:20 AM54 °FFog.6 mph100%30.36 "Hg1 mi
6:50 AM54 °FFog.5 mph100%30.36 "Hg1 mi
6:20 AM55 °FFog.3 mph94%30.36 "Hg2 mi
5:50 AM55 °FFog.3 mph100%30.36 "Hg2 mi
5:20 AM55 °FFog.2 mph100%30.36 "Hg2 mi
4:50 AM57 °FFog.2 mph94%30.36 "Hg3 mi
4:20 AM57 °FPartly cloudy.2 mph94%30.33 "Hg4 mi
3:50 AM57 °FPartly cloudy.5 mph94%30.33 "Hg4 mi
3:20 AM57 °FFog.5 mph94%30.33 "Hg3 mi
2:50 AM57 °FPassing clouds.3 mph94%30.33 "Hg4 mi
2:20 AM57 °FPassing clouds.3 mph100%30.33 "Hg4 mi
1:50 AM57 °FPassing clouds.3 mph100%30.33 "Hg4 mi
1:20 AM59 °FOvercast.7 mph94%30.33 "Hg4 mi
12:50 AM59 °FOvercast.3 mph94%30.33 "Hg4 mi
12:20 AM59 °FPassing clouds.6 mph94%30.33 "Hg4 mi
11:50 PM
Oct 1
59 °FFog.5 mph94%30.33 "Hg3 mi
11:20 PM59 °FFog.3 mph94%30.33 "Hg2 mi
10:50 PM59 °FFog.6 mph94%30.33 "Hg2 mi
10:20 PM59 °FSnow. Overcast.5 mph100%30.33 "Hg3 mi
9:50 PM59 °FFog.6 mph100%30.30 "Hg2 mi
9:20 PM59 °FCool.5 mph100%30.30 "Hg2 mi
8:50 PM59 °FPassing clouds.3 mph94%30.30 "Hg4 mi
8:20 PM59 °FPartly cloudy.2 mph94%30.30 "Hg5 mi
7:50 PM59 °FPartly cloudy.5 mph94%30.30 "Hg5 mi
7:20 PM59 °FBroken clouds.5 mph94%30.30 "Hg6 mi
6:50 PM59 °FBroken clouds.3 mph94%30.30 "Hg6 mi
6:20 PM59 °FBroken clouds.3 mph100%30.27 "Hg6 mi
5:50 PM61 °FBroken clouds.5 mph88%30.30 "Hg6 mi
5:20 PM61 °FRain. Partly sunny.3 mph94%30.27 "Hg2 mi
4:50 PM61 °FRain. Partly sunny.2 mph100%30.27 "Hg3 mi
4:20 PM61 °FLight rain. Partly sunny.2 mph94%30.27 "Hg4 mi
3:50 PM63 °FLight rain. Broken clouds.2 mph88%30.27 "Hg6 mi
3:20 PM63 °FLight rain. Broken clouds.2 mph88%30.27 "Hg5 mi
2:50 PM63 °FLight rain. Broken clouds.2 mph88%30.27 "Hg5 mi
2:20 PM63 °FDrizzle. Partly sunny.5 mph88%30.27 "Hg5 mi
1:50 PM61 °FLight rain. Partly sunny.6 mph94%30.30 "Hg4 mi
1:20 PM63 °FLight rain. Partly sunny.3 mph88%30.30 "Hg4 mi
12:50 PM63 °FLight rain. Partly sunny.2 mph88%30.30 "Hg4 mi
12:20 PM61 °FLight rain. Partly sunny.3 mph94%30.30 "Hg4 mi
11:50 AM61 °FLight rain. Partly sunny.3 mph94%30.30 "Hg4 mi
11:20 AM61 °FLight rain. Broken clouds.3 mph94%30.30 "Hg2 mi
10:50 AM61 °FDrizzle. Fog.3 mph94%30.30 "Hg2 mi
10:20 AM61 °FLight rain. Fog.2 mph94%30.30 "Hg2 mi
9:50 AM61 °FLight rain. Fog.3 mph94%30.30 "Hg2 mi
9:20 AM61 °FLight rain. Fog.2 mph94%30.30 "Hg1 mi
Weather by CustomWeather, © 2014

See weather overviewHow to use our weather pages